Tiempo cada hora Barra

Hoy, 6 Marzo, Sábado

Tiempo Temperatura Precipitaciones Viento Presión Humedad
00:00 +23°C° 0 mm 5 mps 756 mmHg 39%
01:00 +23°C° 0 mm 4 mps 756 mmHg 40%
02:00 +22°C° 0 mm 3 mps 756 mmHg 41%
03:00 +22°C° 0 mm 3 mps 756 mmHg 42%
04:00 +22°C° 0 mm 3 mps 756 mmHg 43%
05:00 +21°C° 0 mm 3 mps 756 mmHg 44%
06:00 +24°C° 0 mm 2 mps 757 mmHg 40%
07:00 +25°C° 0 mm 2 mps 757 mmHg 37%
08:00 +26°C° 0 mm 1 mps 758 mmHg 34%
09:00 +29°C° 0 mm 1 mps 758 mmHg 28%
10:00 +32°C° 0 mm 1 mps 758 mmHg 22%
11:00 +35°C° 0 mm 1 mps 758 mmHg 16%
12:00 +37°C° 0 mm 3 mps 757 mmHg 16%
13:00 +38°C° 0 mm 4 mps 756 mmHg 15%
14:00 +40°C° 0 mm 6 mps 756 mmHg 14%
15:00 +38°C° 0 mm 6 mps 756 mmHg 19%
16:00 +34°C° 0 mm 7 mps 756 mmHg 24%
17:00 +32°C° 0 mm 7 mps 755 mmHg 29%
18:00 +29°C° 0 mm 7 mps 756 mmHg 35%
19:00 +27°C° 0 mm 6 mps 757 mmHg 40%
20:00 +24°C° 0 mm 6 mps 758 mmHg 46%
21:00 +24°C° 0 mm 6 mps 758 mmHg 45%
22:00 +23°C° 0 mm 5 mps 758 mmHg 45%
23:00 +23°C° 0 mm 5 mps 758 mmHg 45%

Mañana, 7 Marzo, Domingo

Tiempo Temperatura Precipitaciones Viento Presión Humedad
00:00 +23°C° 0 mm 4 mps 758 mmHg 46%
01:00 +22°C° 0 mm 4 mps 758 mmHg 48%
02:00 +22°C° 0 mm 4 mps 758 mmHg 49%
03:00 +22°C° 0 mm 4 mps 758 mmHg 47%
04:00 +22°C° 0 mm 3 mps 758 mmHg 46%
05:00 +22°C° 0 mm 3 mps 758 mmHg 44%
06:00 +25°C° 0 mm 3 mps 758 mmHg 38%
07:00 +26°C° 0 mm 3 mps 759 mmHg 31%
08:00 +28°C° 0 mm 3 mps 759 mmHg 25%
09:00 +31°C° 0 mm 3 mps 759 mmHg 21%
10:00 +35°C° 0 mm 3 mps 759 mmHg 17%
11:00 +38°C° 0 mm 4 mps 759 mmHg 13%
12:00 +40°C° 0 mm 4 mps 758 mmHg 13%
13:00 +41°C° 0 mm 5 mps 757 mmHg 13%
14:00 +42°C° 0 mm 5 mps 757 mmHg 12%
15:00 +39°C° 0 mm 6 mps 756 mmHg 19%
16:00 +35°C° 0 mm 7 mps 756 mmHg 25%
17:00 +32°C° 0 mm 7 mps 756 mmHg 31%
18:00 +32°C° 0 mm 7 mps 756 mmHg 32%
19:00 +30°C° 0 mm 7 mps 757 mmHg 33%
20:00 +29°C° 0 mm 7 mps 757 mmHg 33%
21:00 +28°C° 0 mm 7 mps 757 mmHg 34%
22:00 +27°C° 0 mm 7 mps 758 mmHg 35%
23:00 +26°C° 0 mm 7 mps 758 mmHg 36%

Pasado mañana, 8 Marzo, Lunes

Tiempo Temperatura Precipitaciones Viento Presión Humedad
00:00 +26°C° 0 mm 6 mps 758 mmHg 37%
01:00 +25°C° 0 mm 5 mps 757 mmHg 38%
02:00 +23°C° 0 mm 5 mps 757 mmHg 39%
03:00 +23°C° 0 mm 5 mps 757 mmHg 40%
04:00 +22°C° 0 mm 5 mps 757 mmHg 41%
05:00 +22°C° 0 mm 5 mps 757 mmHg 42%
06:00 +23°C° 0 mm 5 mps 758 mmHg 38%
07:00 +25°C° 0 mm 5 mps 758 mmHg 35%
08:00 +26°C° 0 mm 5 mps 758 mmHg 31%
09:00 +29°C° 0 mm 4 mps 758 mmHg 26%
10:00 +33°C° 0 mm 4 mps 758 mmHg 20%
11:00 +36°C° 0 mm 4 mps 758 mmHg 15%
12:00 +37°C° 0 mm 5 mps 757 mmHg 14%
13:00 +39°C° 0 mm 5 mps 756 mmHg 14%
14:00 +40°C° 0 mm 6 mps 755 mmHg 13%
15:00 +39°C° 0 mm 6 mps 755 mmHg 17%
16:00 +36°C° 0 mm 6 mps 755 mmHg 21%
17:00 +34°C° 0 mm 7 mps 755 mmHg 25%
18:00 +32°C° 0 mm 7 mps 755 mmHg 28%
19:00 +29°C° 0 mm 7 mps 756 mmHg 31%
20:00 +27°C° 0 mm 7 mps 756 mmHg 34%
21:00 +26°C° 0 mm 7 mps 757 mmHg 37%
22:00 +24°C° 0 mm 8 mps 757 mmHg 41%
23:00 +23°C° 0 mm 8 mps 757 mmHg 44%

9 Marzo, Martes

Tiempo Temperatura Precipitaciones Viento Presión Humedad
00:00 +22°C° 0 mm 7 mps 757 mmHg 47%
01:00 +22°C° 0 mm 7 mps 756 mmHg 50%
02:00 +21°C° 0 mm 7 mps 756 mmHg 53%
03:00 +21°C° 0 mm 6 mps 756 mmHg 55%
04:00 +20°C° 0 mm 6 mps 756 mmHg 58%
05:00 +20°C° 0 mm 5 mps 756 mmHg 60%
06:00 +21°C° 0 mm 5 mps 756 mmHg 55%
07:00 +22°C° 0 mm 5 mps 757 mmHg 50%
08:00 +23°C° 0 mm 5 mps 758 mmHg 46%
09:00 +27°C° 0 mm 4 mps 758 mmHg 37%
10:00 +30°C° 0 mm 4 mps 758 mmHg 29%
11:00 +34°C° 0 mm 3 mps 758 mmHg 20%
12:00 +35°C° 0 mm 4 mps 757 mmHg 19%
13:00 +36°C° 0 mm 5 mps 756 mmHg 18%
14:00 +38°C° 0 mm 6 mps 755 mmHg 17%
15:00 +35°C° 0 mm 6 mps 755 mmHg 24%
16:00 +32°C° 0 mm 7 mps 755 mmHg 31%
17:00 +29°C° 0 mm 7 mps 755 mmHg 38%
18:00 +28°C° 0 mm 7 mps 755 mmHg 41%
19:00 +27°C° 0 mm 7 mps 756 mmHg 43%
20:00 +26°C° 0 mm 7 mps 756 mmHg 45%
21:00 +24°C° 0 mm 7 mps 757 mmHg 43%
22:00 +23°C° 0 mm 7 mps 757 mmHg 42%
23:00 +23°C° 0 mm 7 mps 757 mmHg 41%

10 Marzo, Miércoles

Tiempo Temperatura Precipitaciones Viento Presión Humedad
00:00 +22°C° 0 mm 7 mps 757 mmHg 44%
01:00 +22°C° 0 mm 6 mps 757 mmHg 47%
02:00 +21°C° 0 mm 6 mps 756 mmHg 50%
03:00 +21°C° 0 mm 5 mps 756 mmHg 52%
04:00 +20°C° 0 mm 5 mps 756 mmHg 54%
05:00 +20°C° 0 mm 4 mps 756 mmHg 56%
06:00 +21°C° 0 mm 4 mps 757 mmHg 50%
07:00 +23°C° 0 mm 4 mps 757 mmHg 44%
08:00 +25°C° 0 mm 3 mps 758 mmHg 38%
09:00 +28°C° 0 mm 3 mps 758 mmHg 31%
10:00 +31°C° 0 mm 3 mps 758 mmHg 24%
11:00 +35°C° 0 mm 3 mps 758 mmHg 17%
12:00 +36°C° 0 mm 4 mps 757 mmHg 16%
13:00 +37°C° 0 mm 4 mps 756 mmHg 15%
14:00 +39°C° 0 mm 5 mps 755 mmHg 14%
15:00 +36°C° 0 mm 6 mps 755 mmHg 19%
16:00 +34°C° 0 mm 6 mps 755 mmHg 24%
17:00 +32°C° 0 mm 7 mps 755 mmHg 29%
18:00 +30°C° 0 mm 7 mps 755 mmHg 33%
19:00 +28°C° 0 mm 7 mps 756 mmHg 38%
20:00 +26°C° 0 mm 6 mps 756 mmHg 42%
21:00 +26°C° 0 mm 6 mps 757 mmHg 40%
22:00 +26°C° 0 mm 6 mps 757 mmHg 38%
23:00 +26°C° 0 mm 6 mps 757 mmHg 35%

11 Marzo, Jueves

Tiempo Temperatura Precipitaciones Viento Presión Humedad
00:00 +24°C° 0 mm 6 mps 757 mmHg 35%
01:00 +25°C° 0 mm 5 mps 756 mmHg 35%
02:00 +25°C° 0 mm 5 mps 756 mmHg 35%
03:00 +23°C° 0 mm 5 mps 756 mmHg 36%
04:00 +23°C° 0 mm 4 mps 756 mmHg 36%
05:00 +22°C° 0 mm 4 mps 756 mmHg 37%
06:00 +25°C° 0 mm 4 mps 757 mmHg 33%
07:00 +26°C° 0 mm 3 mps 757 mmHg 29%
08:00 +27°C° 0 mm 3 mps 758 mmHg 25%
09:00 +30°C° 0 mm 3 mps 758 mmHg 21%
10:00 +34°C° 0 mm 3 mps 758 mmHg 17%
11:00 +36°C° 0 mm 3 mps 758 mmHg 13%
12:00 +37°C° 0 mm 3 mps 757 mmHg 13%
13:00 +38°C° 0 mm 4 mps 756 mmHg 13%
14:00 +40°C° 0 mm 4 mps 755 mmHg 12%
15:00 +36°C° 0 mm 5 mps 755 mmHg 18%
16:00 +34°C° 0 mm 6 mps 754 mmHg 24%
17:00 +30°C° 0 mm 7 mps 754 mmHg 29%
18:00 +29°C° 0 mm 7 mps 755 mmHg 32%
19:00 +28°C° 0 mm 7 mps 756 mmHg 35%
20:00 +26°C° 0 mm 7 mps 756 mmHg 38%
21:00 +26°C° 0 mm 7 mps 756 mmHg 36%
22:00 +26°C° 0 mm 7 mps 757 mmHg 35%
23:00 +26°C° 0 mm 6 mps 757 mmHg 34%
Mostrar más

Necesitamos Su Consentimiento

Meteoprog y nuestros Proveedores de Servicios pueden almacenar y acceder a sus datos personales como cookies, identificadores de dispositivo u otras tecnologías similares de su dispositivo y procesar dichos datos para personalizar contenido y anuncios, además de ofrecer funciones de redes sociales y analizar el tráfico.

  • Almacenar y/o acceder a información en su dispositivo

    Se puede almacenar o acceder a cookies, identificadores de dispositivo u otra información de su dispositivo para los fines anteriormente indicados.

  • Anuncios y contenido personalizados, medición de anuncios y contenido, percepciones del público, y desarrollo de productos

    Los anuncios y el contenido pueden personalizarse en base a su perfil. Se pueden añadir más datos para personalizar mejor los anuncios y contenidos. Se puede medir el rendimiento de los anuncios y contenidos. Se puede obtener la percepción sobre el público que ha visto los anuncios y contenidos. Dichos datos pueden usarse para desarrollar o mejorar la experiencia del usuario, sistemas y software.

Al hacer clic en ‘Estoy De Acuerdo’ usted permitirá el uso de las cookies, identificadores de dispositivo, balizas web u otras tecnologías similares indicadas. Su configuración puede cambiarse desde el navegador de su dispositivo.

Para ciertos fines, los intereses legítimos pueden ser considerados por encima del consentimiento. Puede leer más sobre ello en nuestra Política de Privacidad y Cookies.